[[{"header":{"parameterUnit":"m.s-1","parameterCategory":1,"la1":30.2991,"la2":30.254,"lo1":-89.0895,"lo2":-89.0444,"dy":0.0017,"dx":0.0017,"nx":28,"ny":28,"refTime":"2023-10-01T09:00:00:Z","depth":0,"parameterNumber":2,"parameterNumberName":"U-component_of_WINDS"},"data":[0,0,0,0,0,0,0,0,0,0,0,0,0,0,0,0,0,0,0,0,0,0,0,0,0,0,0,0,0,0,0,0,0,0,0,0,0,0,0,0,0,0,0,0,0,0,0,0,0,0,0,0,0,0,0,0,0,0,-4.1779,-4.1779,0,-4.1768,-4.1768,-4.1768,-4.1591,-4.1587,-4.1582,-4.1578,-4.1569,-4.1572,-4.1576,0,0,0,0,0,0,0,0,0,0,0,0,0,-4.165,-4.1653,-4.1779,-4.1779,-4.1779,-4.1768,-4.1768,-4.1768,-4.1592,-4.1587,-4.1581,-4.1576,-4.1567,-4.1572,-4.1577,0,0,0,0,0,0,0,0,0,0,0,0,0,-4.1679,-4.1654,-4.1779,-4.169,-4.1682,-4.1768,-4.1768,-4.1768,-4.1593,-4.1586,-4.158,-4.1573,-4.1566,-4.1571,-4.1577,-4.1749,0,0,-4.1595,-4.1598,0,0,0,0,0,0,0,0,-4.1678,-4.1684,-4.1703,-4.1696,-4.1687,-4.1674,-4.1718,-4.1762,-4.1595,-4.1627,-4.1578,-4.157,-4.1609,-4.1611,-4.1624,-4.1749,-4.1748,-4.1596,-4.16,-4.1602,-4.1604,0,0,0,0,0,0,0,-4.1676,-4.1684,-4.1775,-4.1704,-4.1694,-4.1651,-4.1648,-4.1726,-4.1656,-4.1624,-4.1611,-4.1612,-4.1604,-4.1619,-4.1622,-4.1748,-4.1596,-4.1601,-4.1605,-4.1607,-4.2014,-4.2021,0,0,0,0,0,0,-4.1686,-4.1683,-4.1775,-4.1774,-4.1666,-4.1659,-4.1655,-4.1685,-4.1655,-4.1644,-4.1618,-4.1604,-4.1612,-4.1616,-4.1621,-4.1822,-4.1602,-4.1608,-4.1611,-4.2007,-4.2016,-4.2024,0,0,0,0,0,0,-4.1684,-4.1696,-4.1775,-4.1725,-4.1732,-4.1668,-4.1703,-4.1689,-4.1703,-4.165,-4.1637,-4.1646,-4.1607,-4.1613,-4.1719,-4.1819,-4.161,-4.1616,-4.1998,-4.201,-4.202,-4.2224,0,0,0,0,0,0,-4.1681,-4.1696,-4.176,-4.1728,-4.1735,-4.1873,-4.1709,-4.1693,-4.1714,-4.1695,-4.1673,-4.1663,-4.1602,-4.1711,-4.1725,-4.1823,-4.162,-4.1989,-4.2003,-4.2016,-4.2208,-4.224,-4.2268,0,0,0,0,0,-4.1677,-4.1818,-4.1765,-4.1777,-4.1814,-4.1879,-4.1884,-4.181,-4.1723,-4.1787,-4.1753,-4.1664,-4.1805,-4.1723,-4.1737,-4.1839,-4.1983,-4.1999,-4.2015,-4.2194,-4.2234,-4.2267,0,0,0,0,0,0,-4.1865,-4.1812,-4.1752,-4.1887,-4.1889,-4.1849,-4.1928,-4.1854,-4.1881,-4.1863,-4.177,-4.1767,-4.1888,-4.1873,-4.1783,-4.2004,-4.1878,-4.1898,-4.201,-4.2047,-4.2076,-4.2078,-4.1625,0,0,0,0,0,-4.1922,-4.1978,-4.1929,-4.2054,-4.2057,-4.1994,-4.2019,-4.1962,-4.196,-4.196,-4.1934,-4.1936,-4.1981,-4.2013,-4.2051,-4.2204,-4.2198,-4.2281,-4.2311,-4.2336,-4.2355,-4.2437,-4.2474,-4.2077,-4.2077,-4.2077,0,0,-4.2041,-4.2019,-4.206,-4.2091,-4.2085,-4.2147,-4.1995,-4.2066,-4.2111,-4.1971,-4.207,-4.2051,-4.2047,-4.2178,-4.2234,-4.217,-4.2463,-4.2357,-4.2377,-4.2383,-4.2458,-4.2495,-4.2529,-4.2088,-4.2086,-4.2085,0,0,-4.2289,-4.2277,-4.238,-4.2378,-4.2371,-4.2328,-4.2353,-4.2324,-4.2306,-4.2403,-4.23,-4.2352,-4.2431,-4.2433,-4.2445,-4.2695,-4.2614,-4.271,-4.2868,-4.2948,-4.298,-4.3007,-4.3098,-4.3132,-4.2728,-4.2729,-4.2729,0,-4.2437,-4.2525,-4.2442,-4.2521,-4.2538,-4.2413,-4.2517,-4.2519,-4.2526,-4.2541,-4.2468,-4.2566,-4.2554,-4.2685,-4.2746,-4.2759,-4.2785,-4.2713,-4.2982,-4.3008,-4.3033,-4.3119,-4.3153,-4.274,-4.2739,-4.2738,-4.2737,0,-4.2709,-4.2772,-4.2856,-4.2866,-4.2892,-4.2983,-4.2915,-4.2951,-4.2892,-4.2857,-4.2958,-4.294,-4.2973,-4.2999,-4.2942,-4.3122,-4.3083,-4.2998,-4.287,-4.3084,-4.3163,-4.3195,-4.2757,-4.2753,-4.275,-4.2747,0,0,-4.3077,-4.304,-4.3072,-4.3076,-4.3059,-4.3107,-4.3192,-4.3224,-4.3259,-4.3267,-4.3338,-4.3408,-4.3329,-4.3342,-4.3284,-4.3355,-4.3556,-4.326,-4.3259,-4.3318,-4.3756,-4.3822,-4.3862,-4.3502,-4.3508,-4.3513,-4.3757,0,-4.3318,-4.3462,-4.339,-4.3544,-4.3601,-4.3483,-4.3558,-4.3557,-4.3526,-4.3571,-4.3536,-4.3589,-4.3479,-4.3487,-4.3551,-4.3518,-4.3643,-4.3499,-4.3569,-4.3572,-4.3576,-4.3902,-4.3972,-4.4204,-4.3787,-4.3792,-4.3796,0,-4.3619,-4.3641,-4.3801,-4.3775,-4.3796,-4.3865,-4.3889,-4.3933,-4.3929,-4.3902,-4.3917,-4.3843,-4.3926,-4.3798,-4.3912,-4.3816,-4.3839,-4.3828,-4.3835,-4.384,-4.3699,-4.3919,-4.4276,-4.4312,-4.3844,-4.384,-4.3837,0,-4.3875,-4.3943,-4.4048,-4.4054,-4.4026,-4.4077,-4.4068,-4.4057,-4.4082,-4.4103,-4.4118,-4.4149,-4.4166,-4.4192,-4.4128,-4.4041,-4.4253,-4.4118,-4.4234,-4.4236,-4.4285,-4.4284,-4.4654,-4.4298,-4.4297,-4.4296,-4.4296,0,-4.4153,-4.4256,-4.4162,-4.4227,-4.4339,-4.4255,-4.4368,-4.4346,-4.4338,-4.4397,-4.4296,-4.4354,-4.4265,-4.4314,-4.4265,-4.4368,-4.4376,-4.4357,-4.4344,-4.4368,-4.4371,-4.4384,-4.4367,-4.4305,-4.4303,-4.4302,-4.43,0,-4.4458,-4.4399,-4.4506,-4.447,-4.4463,-4.4548,-4.4517,-4.4576,-4.4538,-4.4614,-4.4627,-4.4568,-4.4621,-4.4559,-4.4606,-4.4573,-4.4714,-4.4675,-4.4716,-4.4706,-4.4825,-4.4816,-4.5219,-4.5268,-4.4879,-4.4883,-4.4886,0,-4.4641,-4.4717,-4.4689,-4.4721,-4.4718,-4.4771,-4.4795,-4.4715,-4.4745,-4.4747,-4.4806,-4.485,-4.4881,-4.4972,-4.4933,-4.497,-4.4932,-4.5071,-4.4937,-4.496,-4.4937,-4.4935,-4.4943,-4.5099,-4.5104,-4.5107,-4.5111,0,-4.4972,-4.4939,-4.4977,-4.5007,-4.5038,-4.5057,-4.5069,-4.5101,-4.5017,-4.5056,-4.5109,-4.5133,-4.5181,-4.5228,-4.5253,-4.5244,-4.5166,-4.5153,-4.5182,-4.5209,-4.523,-4.5222,-4.4793,-4.5144,-4.5141,-4.5138,-4.5137,-4.5135,-4.5222,-4.5285,-4.5276,-4.5323,-4.5323,-4.5336,-4.539,-4.5358,-4.54,-4.5434,-4.5384,-4.545,-4.5445,-4.5471,-4.5472,-4.5523,-4.5464,-4.5505,-4.5516,-4.5529,-4.5548,-4.522,-4.5527,-4.5526,-4.5525,-4.5524,-4.5523,0,-4.555,-4.5539,-4.5582,-4.5601,-4.5639,-4.5559,-4.5567,-4.5604,-4.5664,-4.5665,-4.5698,-4.576,-4.5804,-4.5769,-4.5806,-4.5854,-4.5819,-4.5867,-4.5863,-4.5863,-4.5597,-4.557,-4.5895,-4.5894,-4.5894,-4.5894,-4.5894,-4.5894,-4.5726,-4.5828,-4.5795,-4.5897,-4.5884,-4.5948,-4.596,-4.5972,-4.5973,-4.6046,-4.6082,-4.6058,-4.6046,-4.6081,-4.6119,-4.6107,-4.6127,-4.6189,-4.6165,-4.5918,-4.5882,-4.5847,-4.582,-4.6193,-4.6193,-4.6426,-4.6428,-4.643]},{"header":{"parameterUnit":"m.s-1","parameterCategory":1,"la1":30.2991,"la2":30.254,"lo1":-89.0895,"lo2":-89.0444,"dy":0.0017,"dx":0.0017,"nx":28,"ny":28,"refTime":"2023-10-01T09:00:00:Z","depth":0,"parameterNumber":3,"parameterNumberName":"V-component_of_WINDS"},"data":[0,0,0,0,0,0,0,0,0,0,0,0,0,0,0,0,0,0,0,0,0,0,0,0,0,0,0,0,0,0,0,0,0,0,0,0,0,0,0,0,0,0,0,0,0,0,0,0,0,0,0,0,0,0,0,0,0,0,0.7373,0.7372,0,0.7297,0.7296,0.7295,0.7268,0.7269,0.7269,0.7269,0.7185,0.7183,0.718,0,0,0,0,0,0,0,0,0,0,0,0,0,0.749,0.7488,0.7373,0.7372,0.7371,0.7297,0.7296,0.7295,0.7268,0.7269,0.7269,0.7269,0.7186,0.7183,0.718,0,0,0,0,0,0,0,0,0,0,0,0,0,0.7429,0.7488,0.7373,0.7349,0.7346,0.7297,0.7296,0.7294,0.7268,0.7269,0.7269,0.727,0.7187,0.7183,0.7179,0.7147,0,0,0.7168,0.7166,0,0,0,0,0,0,0,0,0.7433,0.7425,0.7353,0.7351,0.7347,0.7293,0.7306,0.7245,0.7268,0.7298,0.7269,0.727,0.722,0.7214,0.7198,0.7143,0.7139,0.7168,0.7165,0.7164,0.7163,0,0,0,0,0,0,0,0.7437,0.7428,0.7342,0.7352,0.7349,0.734,0.7332,0.7294,0.7257,0.7295,0.7293,0.7285,0.7218,0.7202,0.7196,0.7138,0.7168,0.7164,0.7162,0.716,0.7052,0.7052,0,0,0,0,0,0,0.7446,0.7432,0.7345,0.734,0.7392,0.7338,0.7329,0.731,0.7257,0.725,0.7284,0.7284,0.7208,0.72,0.7193,0.7151,0.7164,0.716,0.7158,0.7053,0.7052,0.7051,0,0,0,0,0,0,0.7449,0.7439,0.7348,0.7385,0.7373,0.7335,0.7314,0.7308,0.7291,0.7249,0.7242,0.7275,0.7208,0.7198,0.7159,0.7148,0.7158,0.7155,0.7054,0.7053,0.7052,0.7067,0,0,0,0,0,0,0.7452,0.744,0.7428,0.7385,0.7371,0.7317,0.7313,0.7306,0.7285,0.7284,0.7238,0.7231,0.7208,0.7165,0.7155,0.7143,0.7152,0.7054,0.7053,0.7052,0.7067,0.7067,0.7067,0,0,0,0,0,0.7456,0.7434,0.7427,0.7417,0.7356,0.7316,0.7308,0.7283,0.7285,0.7272,0.7245,0.7232,0.7151,0.7161,0.715,0.7136,0.7055,0.7053,0.7052,0.7068,0.7067,0.7067,0,0,0,0,0,0,0.7473,0.7428,0.742,0.7383,0.7354,0.7312,0.7295,0.7283,0.7251,0.7251,0.722,0.721,0.7173,0.7151,0.7163,0.7102,0.7102,0.7099,0.7118,0.7117,0.7116,0.7122,0.7149,0,0,0,0,0,0.7473,0.7446,0.7407,0.7378,0.7364,0.7332,0.7314,0.7298,0.7266,0.7252,0.7223,0.719,0.7157,0.7136,0.7103,0.7065,0.7054,0.705,0.705,0.7049,0.7046,0.7024,0.7021,0.7047,0.7047,0.7047,0,0,0.7471,0.7443,0.7428,0.7381,0.7357,0.7328,0.7322,0.7291,0.7269,0.7247,0.7209,0.7186,0.7148,0.7109,0.709,0.7089,0.7037,0.7048,0.7048,0.7044,0.7022,0.702,0.7018,0.7046,0.7046,0.7046,0,0,0.7454,0.743,0.7404,0.738,0.7344,0.7324,0.7318,0.7277,0.7262,0.7224,0.7207,0.7179,0.7123,0.7097,0.7076,0.7051,0.7038,0.7041,0.7038,0.7016,0.7014,0.7012,0.7003,0.7,0.7038,0.7038,0.7038,0,0.7455,0.7413,0.7391,0.7362,0.7342,0.7324,0.7296,0.7273,0.7228,0.7213,0.7214,0.7144,0.7117,0.7071,0.7066,0.705,0.7041,0.7045,0.7017,0.7015,0.7012,0.7003,0.6999,0.7039,0.7039,0.7039,0.7039,0,0.7417,0.7388,0.7371,0.733,0.7308,0.728,0.7252,0.7232,0.7219,0.7198,0.7159,0.7126,0.7087,0.7075,0.7061,0.7028,0.7029,0.7023,0.7023,0.7011,0.7001,0.6997,0.704,0.7039,0.7039,0.7039,0,0,0.7405,0.7355,0.7349,0.733,0.729,0.7266,0.7238,0.7202,0.7185,0.7154,0.7128,0.7083,0.7078,0.7055,0.7037,0.7019,0.7001,0.7016,0.7014,0.7013,0.6962,0.6965,0.6961,0.6993,0.6992,0.6992,0.6965,0,0.7381,0.7331,0.7311,0.7269,0.7242,0.7225,0.7199,0.7171,0.7151,0.7124,0.7101,0.7069,0.7066,0.7052,0.7033,0.7007,0.699,0.7009,0.6966,0.6965,0.6975,0.6956,0.6959,0.6936,0.6961,0.696,0.696,0,0.7346,0.7318,0.7275,0.7239,0.7227,0.7205,0.7171,0.7146,0.7113,0.71,0.7075,0.7059,0.7027,0.7031,0.6985,0.6998,0.698,0.6965,0.6963,0.6957,0.6961,0.6948,0.6928,0.6924,0.6954,0.6954,0.6955,0,0.7341,0.7292,0.726,0.7245,0.7203,0.7188,0.7169,0.7138,0.7118,0.7088,0.7074,0.704,0.7021,0.6994,0.6969,0.6974,0.6925,0.6926,0.6912,0.6912,0.69,0.6901,0.6875,0.6892,0.6892,0.6892,0.6892,0,0.7315,0.7289,0.7257,0.7237,0.7207,0.7184,0.7154,0.7134,0.7107,0.7082,0.7065,0.7041,0.701,0.6982,0.6962,0.6927,0.6919,0.6906,0.6901,0.6907,0.6908,0.6893,0.6893,0.6891,0.6891,0.6891,0.6891,0,0.7303,0.7281,0.7245,0.7209,0.72,0.7179,0.7148,0.7127,0.7107,0.7075,0.7067,0.7035,0.7001,0.6975,0.693,0.6917,0.6879,0.6874,0.6891,0.6888,0.6874,0.6875,0.6836,0.6829,0.6852,0.6851,0.6851,0,0.7287,0.7267,0.7231,0.7214,0.7196,0.7169,0.7149,0.7126,0.7106,0.7069,0.7053,0.7019,0.699,0.6936,0.6908,0.6874,0.6867,0.6856,0.6861,0.6868,0.6865,0.6866,0.6864,0.6854,0.6854,0.6854,0.6854,0,0.7262,0.7253,0.7226,0.7196,0.7174,0.7148,0.7122,0.7109,0.7081,0.706,0.7026,0.7004,0.6961,0.6926,0.689,0.6868,0.6856,0.6853,0.6848,0.6852,0.6862,0.6856,0.6887,0.6853,0.6853,0.6853,0.6853,0.6853,0.7246,0.7227,0.7199,0.7171,0.715,0.7126,0.7105,0.7085,0.7057,0.7021,0.7009,0.6975,0.6944,0.6894,0.6873,0.6844,0.6843,0.6836,0.6833,0.6831,0.6832,0.6869,0.6838,0.6838,0.6838,0.6838,0.6838,0,0.7218,0.72,0.7174,0.714,0.7117,0.7111,0.7083,0.7063,0.7034,0.7008,0.6981,0.6942,0.691,0.688,0.6846,0.6829,0.6822,0.682,0.682,0.6816,0.6835,0.6843,0.6826,0.6826,0.6826,0.6826,0.6826,0.6826,0.7201,0.7169,0.7157,0.7115,0.7096,0.7064,0.7049,0.7027,0.7005,0.6965,0.6938,0.6921,0.6892,0.6856,0.6825,0.6818,0.6805,0.6804,0.6795,0.6813,0.6814,0.6815,0.6823,0.6802,0.6802,0.6777,0.6777,0.6777]}]]